Weather History for Port Isabel, TX

Change the Weather History Date:

Saturday, April 19, 2014

  Actual Average Record
Temperature  
Mean Temperature 69 °F -  
Max Temperature 79 °F - - ()
Min Temperature 60 °F - - ()
Cooling Degree Days 4    
Growing Degree Days 19 (Base 50)    
Moisture  
Dew Point 64 °F    
Average Humidity 78    
Maximum Humidity 93    
Minimum Humidity 64    
Precipitation  
Precipitation 0.00 in - - ()
Sea Level Pressure  
Sea Level Pressure 30.09 in    
Wind  
Wind Speed 9 mph (ESE)    
Max Wind Speed 16 mph    
Max Gust Speed 24 mph    
Visibility 8 miles    
Events      
T = Trace of Precipitation, MM = Missing Value Source: NWS Daily Summary

Daily Weather History Graph

Daily Weather History Graph

Search for Another Location

Airport:

Trip Planner

Search our weather history database for the weather conditions in past years. The results will help you decide how hot, cold, wet, or windy it might be!

Date:

Astronomy

Apr. 19, 2014 Rise Set
Actual Time 7:02 AM CDT 7:54 PM CDT
Civil Twilight 6:38 AM CDT 8:18 PM CDT
Nautical Twilight 6:10 AM CDT 8:46 PM CDT
Astronomical Twilight 5:41 AM CDT 9:15 PM CDT
Moon No Moon Rise 10:34 AM CDT (4/19)
Length of Visible Light 13h 40m
Length of Day
12h 52m
Waning Gibbous, 78% of the Moon is Illuminated
Apr 19
Waning Gibbous
Apr 22
Last Quarter
Apr 29
New
May 6
First Quarter
May 14
Full

Hourly Weather History & Observations

Time (CDT) Temp. Dew Point Humidity Pressure Visibility Wind Dir Wind Speed Gust Speed Precip Events Conditions
12:53 AM 66.9 °F 62.1 °F 84% 30.12 in 9.0 mi ESE 8.1 mph - N/A   Clear
1:53 AM 66.9 °F 62.1 °F 84% 30.10 in 9.0 mi ESE 5.8 mph - N/A   Clear
2:53 AM 66.0 °F 62.1 °F 87% 30.08 in 9.0 mi ESE 5.8 mph - N/A   Clear
4:53 AM 64.0 °F 61.0 °F 90% 30.07 in 8.0 mi East 3.5 mph - N/A   Clear
5:53 AM 60.1 °F 57.0 °F 90% 30.08 in 8.0 mi Calm Calm - 0.00 in   Clear
6:53 AM 62.1 °F 59.0 °F 90% 30.08 in 7.0 mi East 4.6 mph - N/A   Clear
7:53 AM 66.0 °F 64.0 °F 93% 30.10 in 6.0 mi East 3.5 mph - 0.00 in   Clear
8:53 AM 71.1 °F 64.9 °F 81% 30.11 in 7.0 mi East 9.2 mph - N/A   Clear
9:53 AM 73.0 °F 64.9 °F 76% 30.13 in 8.0 mi East 9.2 mph - N/A   Clear
10:53 AM 73.0 °F 64.9 °F 76% 30.14 in 8.0 mi East 11.5 mph - N/A   Overcast
11:53 AM 75.0 °F 64.9 °F 71% 30.13 in 8.0 mi East 15.0 mph - N/A   Clear
12:53 PM 78.1 °F 64.9 °F 64% 30.12 in 8.0 mi ESE 15.0 mph - N/A   Clear
1:53 PM 77.0 °F 64.9 °F 66% 30.11 in 8.0 mi East 16.1 mph 24.2 mph N/A   Clear
2:53 PM 78.1 °F 64.9 °F 64% 30.09 in 8.0 mi East 16.1 mph - N/A   Clear
3:53 PM 78.1 °F 64.9 °F 64% 30.08 in 8.0 mi ESE 15.0 mph 20.7 mph N/A   Partly Cloudy
4:53 PM 75.9 °F 64.9 °F 69% 30.06 in 8.0 mi ESE 12.7 mph - N/A   Mostly Cloudy
5:53 PM 75.0 °F 64.9 °F 71% 30.06 in 8.0 mi ESE 12.7 mph - N/A   Overcast
6:53 PM 73.9 °F 64.9 °F 73% 30.06 in 9.0 mi ESE 10.4 mph - N/A   Overcast
7:53 PM 73.0 °F 64.9 °F 76% 30.06 in 9.0 mi ESE 11.5 mph - N/A   Mostly Cloudy
8:53 PM 72.0 °F 66.0 °F 81% 30.07 in 10.0 mi SE 12.7 mph - N/A   Clear
9:53 PM 72.0 °F 66.0 °F 81% 30.09 in 10.0 mi SE 10.4 mph - N/A   Clear
10:53 PM 72.0 °F 66.0 °F 81% 30.09 in 10.0 mi SE 9.2 mph - N/A   Clear
11:53 PM 72.0 °F 66.0 °F 81% 30.08 in 10.0 mi SE 11.5 mph - N/A   Clear